Dagvereara Airport


Codes: BIDA/
Name: Dagvereara Airport
City: Dagvereara
Country: Iceland
Elevation: 130 ft.

Photos at Dagvereara Airport


   Photos courtesy of SpottingLog. You can add your own sightings and photos by signing up for a free trial today.



No photos found.

Weather at Dagvereara Airport


Time (UTC)DescriptionTempratureWindCloud coverageVisibilityPressureHumidity
25-Jun-2024 15:00Light Rain8°C18 mph, S100%10000m1002hPa83%
25-Jun-2024 18:00Light Rain8°C18 mph, S100%10000m1003hPa83%
25-Jun-2024 21:00Light Rain8°C13 mph, S100%10000m1004hPa83%
26-Jun-2024 00:00Light Rain8°C9 mph, S100%10000m1004hPa80%
26-Jun-2024 03:00Light Rain8°C7 mph, S97%10000m1004hPa79%
26-Jun-2024 06:00Light Rain8°C7 mph, S97%10000m1005hPa79%
26-Jun-2024 09:00Light Rain8°C9 mph, S99%10000m1006hPa81%
26-Jun-2024 12:00Light Rain8°C4 mph, S89%10000m1007hPa80%
26-Jun-2024 15:00Light Rain8°C4 mph, SW34%10000m1008hPa77%
26-Jun-2024 18:00Light Rain9°C7 mph, NW34%10000m1008hPa73%
26-Jun-2024 21:00Scattered Clouds9°C11 mph, NW38%10000m1009hPa75%
27-Jun-2024 00:00Scattered Clouds8°C11 mph, NW30%10000m1010hPa83%
27-Jun-2024 03:00Few Clouds7°C16 mph, NW22%10000m1009hPa87%
27-Jun-2024 06:00Few Clouds6°C16 mph, NW19%10000m1009hPa86%
27-Jun-2024 09:00Clear Sky7°C13 mph, N8%10000m1008hPa79%
27-Jun-2024 12:00Clear Sky9°C16 mph, NW6%10000m1008hPa75%
27-Jun-2024 15:00Clear Sky9°C16 mph, NW4%10000m1008hPa74%
27-Jun-2024 18:00Clear Sky9°C18 mph, NW2%10000m1008hPa75%
27-Jun-2024 21:00Clear Sky8°C16 mph, NW2%10000m1007hPa80%
28-Jun-2024 00:00Clear Sky8°C16 mph, NW2%10000m1007hPa83%
28-Jun-2024 03:00Clear Sky7°C13 mph, NW8%10000m1007hPa84%
28-Jun-2024 06:00Scattered Clouds7°C13 mph, NW40%10000m1008hPa82%
28-Jun-2024 09:00Clear Sky8°C13 mph, N7%10000m1007hPa73%
28-Jun-2024 12:00Few Clouds10°C13 mph, N19%10000m1007hPa63%
28-Jun-2024 15:00Broken Clouds9°C13 mph, NW58%10000m1008hPa71%
28-Jun-2024 18:00Broken Clouds9°C16 mph, NW56%10000m1008hPa74%
28-Jun-2024 21:00Overcast Clouds8°C13 mph, NW94%10000m1009hPa76%
29-Jun-2024 00:00Overcast Clouds8°C13 mph, NW94%10000m1009hPa79%
29-Jun-2024 03:00Scattered Clouds7°C13 mph, N48%10000m1010hPa80%
29-Jun-2024 06:00Scattered Clouds8°C11 mph, N45%10000m1010hPa78%
29-Jun-2024 09:00Clear Sky10°C11 mph, NW5%10000m1011hPa72%
29-Jun-2024 12:00Few Clouds11°C9 mph, NW18%10000m1011hPa63%
29-Jun-2024 15:00Few Clouds12°C2 mph, NW20%10000m1010hPa59%
29-Jun-2024 18:00Broken Clouds13°C7 mph, NE59%10000m1008hPa54%
29-Jun-2024 21:00Overcast Clouds13°C2 mph, NE100%10000m1008hPa60%
30-Jun-2024 00:00Overcast Clouds11°C4 mph, NE100%10000m1006hPa61%
30-Jun-2024 03:00Overcast Clouds10°C7 mph, SE100%10000m1005hPa69%
30-Jun-2024 06:00Overcast Clouds10°C2 mph, SE100%10000m1004hPa66%
30-Jun-2024 09:00Overcast Clouds9°C2 mph, SW100%10000m1003hPa70%
30-Jun-2024 12:00Light Rain9°C7 mph, SW100%10000m1002hPa76%